CommID,deviceName,DataDateTime,GPSLatitude,GPSLongitude,Submerged,gpsQuality,BatteryVoltage,SST,IridiumLatitude,IridiumLongitude,IridiumRadiusKm,orgName,bPressTend,windDir,windSpeed,bPress,SurfaceSalinity,temperature7m,salinity7m,temperature15m,salinity15m
300234060750230,SFOS-MS-0029,11/2/2013 10:30:08 PM,72.224352,-176.768627,True,3,10.5,-1.70,72.553890,174.297590,307,School of Fisheries and Ocean Sciences,,,,,,,,,
300234060750230,SFOS-MS-0029,11/2/2013 10:00:37 PM,72.224680,-176.787086,True,3,10.5,-1.65,72.147650,-176.566390,3,School of Fisheries and Ocean Sciences,,,,,,,,,
300234060750230,SFOS-MS-0029,11/2/2013 7:30:08 PM,72.226233,-176.904977,True,3,10.5,-1.65,72.108850,-177.114110,7,School of Fisheries and Ocean Sciences,,,,,,,,,
300234060750230,SFOS-MS-0029,11/2/2013 7:00:08 PM,72.225688,-176.929469,True,3,10.5,-1.65,72.148730,-177.367900,2,School of Fisheries and Ocean Sciences,,,,,,,,,
300234060750230,SFOS-MS-0029,11/2/2013 6:30:08 PM,72.224669,-176.952350,True,3,10.5,-1.70,72.106760,-176.573870,2,School of Fisheries and Ocean Sciences,,,,,,,,,
300234060750230,SFOS-MS-0029,11/2/2013 6:00:37 PM,72.223002,-176.972716,True,3,10.5,-1.70,72.127200,-176.570140,3,School of Fisheries and Ocean Sciences,,,,,,,,,
300234060750230,SFOS-MS-0029,11/2/2013 5:30:08 PM,72.220941,-176.994227,True,3,10.5,-1.70,72.148730,-177.367900,4,School of Fisheries and Ocean Sciences,,,,,,,,,
300234060750230,SFOS-MS-0029,11/2/2013 5:00:08 PM,72.218094,-177.017050,True,3,10.5,-1.70,72.126090,-176.499900,3,School of Fisheries and Ocean Sciences,,,,,,,,,
300234060750230,SFOS-MS-0029,11/2/2013 4:30:08 PM,72.214438,-177.040602,True,3,10.5,-1.60,72.101240,-177.439800,3,School of Fisheries and Ocean Sciences,,,,,,,,,
300234060750230,SFOS-MS-0029,11/2/2013 4:00:08 PM,72.211230,-177.063338,True,3,10.5,-1.60,72.126090,-176.499900,5,School of Fisheries and Ocean Sciences,,,,,,,,,
300234060750230,SFOS-MS-0029,11/2/2013 3:30:37 PM,72.209127,-177.080508,True,3,10.5,-1.60,72.121240,-176.219110,476,School of Fisheries and Ocean Sciences,,,,,,,,,
300234060750230,SFOS-MS-0029,11/2/2013 3:00:08 PM,72.208038,-177.092300,True,3,10.5,-1.60,72.147650,-176.566390,2,School of Fisheries and Ocean Sciences,,,,,,,,,
300234060750230,SFOS-MS-0029,11/2/2013 2:30:08 PM,72.207083,-177.097286,True,3,10.5,-1.65,72.101240,-177.439800,3,School of Fisheries and Ocean Sciences,,,,,,,,,
300234060750230,SFOS-MS-0029,11/2/2013 2:00:08 PM,72.205597,-177.097827,True,3,10.5,-1.60,72.129300,-177.110660,3,School of Fisheries and Ocean Sciences,,,,,,,,,
300234060750230,SFOS-MS-0029,11/2/2013 1:30:08 PM,72.203935,-177.094886,True,3,10.5,-1.60,72.119920,-176.148960,74,School of Fisheries and Ocean Sciences,,,,,,,,,
300234060750230,SFOS-MS-0029,11/2/2013 1:00:08 PM,72.201922,-177.090038,True,3,10.5,-1.60,72.127200,-176.570140,2,School of Fisheries and Ocean Sciences,,,,,,,,,
300234060750230,SFOS-MS-0029,11/2/2013 12:31:07 PM,72.199769,-177.085155,True,3,10.0,-1.60,72.129300,-177.110660,2,School of Fisheries and Ocean Sciences,,,,,,,,,
300234060750230,SFOS-MS-0029,11/1/2013 4:00:09 PM,72.101149,-176.877038,True,3,10.5,-1.65,72.228520,179.318200,157,School of Fisheries and Ocean Sciences,,,,,,,,,
300234060750230,SFOS-MS-0029,11/1/2013 3:30:13 PM,72.099758,-176.872516,True,3,10.5,-1.65,71.581390,-173.510960,124,School of Fisheries and Ocean Sciences,,,,,,,,,
300234060750230,SFOS-MS-0029,11/1/2013 3:00:08 PM,72.098613,-176.866058,True,3,10.5,-1.65,72.592900,-176.581300,2,School of Fisheries and Ocean Sciences,,,,,,,,,
300234060750230,SFOS-MS-0029,11/1/2013 2:30:06 PM,72.097194,-176.857855,True,3,10.5,-1.65,72.592900,-176.581300,3,School of Fisheries and Ocean Sciences,,,,,,,,,
300234060750230,SFOS-MS-0029,11/1/2013 2:00:37 PM,72.096505,-176.847677,True,3,10.5,-1.65,72.377600,-176.515320,2,School of Fisheries and Ocean Sciences,,,,,,,,,
300234060750230,SFOS-MS-0029,11/1/2013 1:30:08 PM,72.097402,-176.836111,True,3,10.5,-1.65,72.113350,-177.464940,80,School of Fisheries and Ocean Sciences,,,,,,,,,
300234060750230,SFOS-MS-0029,11/1/2013 1:00:07 PM,72.098866,-176.825541,True,3,10.5,-1.60,72.570400,-176.441690,3,School of Fisheries and Ocean Sciences,,,,,,,,,
300234060750230,SFOS-MS-0029,11/1/2013 12:30:07 PM,72.101430,-176.814622,True,3,10.5,-1.60,72.570400,-176.441690,2,School of Fisheries and Ocean Sciences,,,,,,,,,
300234060750230,SFOS-MS-0029,11/1/2013 12:00:07 PM,72.104480,-176.804802,True,3,10.5,-1.60,72.366200,-176.445660,3,School of Fisheries and Ocean Sciences,,,,,,,,,
300234060750230,SFOS-MS-0029,11/1/2013 11:30:07 AM,72.105572,-176.793761,True,3,10.5,-1.60,72.570400,-176.441690,2,School of Fisheries and Ocean Sciences,,,,,,,,,
300234060750230,SFOS-MS-0029,11/1/2013 11:00:08 AM,72.105899,-176.782589,True,3,10.5,-1.60,71.554310,178.299180,177,School of Fisheries and Ocean Sciences,,,,,,,,,
300234060750230,SFOS-MS-0029,11/1/2013 10:30:37 AM,72.105399,-176.772080,True,3,10.5,-1.65,72.141630,-174.496090,98,School of Fisheries and Ocean Sciences,,,,,,,,,
300234060750230,SFOS-MS-0029,11/1/2013 10:00:08 AM,72.103772,-176.760811,True,3,10.5,-1.65,72.570400,-176.441690,2,School of Fisheries and Ocean Sciences,,,,,,,,,
300234060750230,SFOS-MS-0029,11/1/2013 9:30:07 AM,72.101661,-176.749764,True,3,10.5,-1.65,72.786200,-176.507640,7,School of Fisheries and Ocean Sciences,,,,,,,,,
300234060750230,SFOS-MS-0029,11/1/2013 9:00:07 AM,72.099744,-176.737569,True,3,10.5,-1.55,72.558600,-176.371910,2,School of Fisheries and Ocean Sciences,,,,,,,,,
300234060750230,SFOS-MS-0029,11/1/2013 8:30:37 AM,72.100291,-176.726327,True,3,10.5,-1.50,72.570400,-176.441690,2,School of Fisheries and Ocean Sciences,,,,,,,,,
300234060750230,SFOS-MS-0029,11/1/2013 8:01:01 AM,72.101102,-176.715664,True,3,10.5,-1.45,72.581900,-176.511490,3,School of Fisheries and Ocean Sciences,,,,,,,,,
300234060750230,SFOS-MS-0029,11/1/2013 7:30:07 AM,72.101386,-176.703952,True,3,10.5,-1.45,72.570400,-176.441690,4,School of Fisheries and Ocean Sciences,,,,,,,,,
300234060750230,SFOS-MS-0029,11/1/2013 7:00:08 AM,72.101080,-176.693894,True,3,10.5,-1.50,72.570400,-176.441690,3,School of Fisheries and Ocean Sciences,,,,,,,,,
300234060750230,SFOS-MS-0029,11/1/2013 6:30:07 AM,72.100224,-176.682027,True,3,10.5,-1.50,72.570400,-176.441690,3,School of Fisheries and Ocean Sciences,,,,,,,,,
300234060750230,SFOS-MS-0029,11/1/2013 6:00:07 AM,72.099369,-176.667100,True,3,10.5,-1.45,72.570400,-176.441690,2,School of Fisheries and Ocean Sciences,,,,,,,,,
300234060750230,SFOS-MS-0029,11/1/2013 5:32:07 AM,72.098422,-176.651722,True,3,10.5,-1.55,72.774800,-176.437700,8,School of Fisheries and Ocean Sciences,,,,,,,,,
300234060750230,SFOS-MS-0029,11/1/2013 5:00:07 AM,72.096441,-176.632111,True,3,10.5,-1.60,72.558600,-176.371910,2,School of Fisheries and Ocean Sciences,,,,,,,,,
300234060750230,SFOS-MS-0029,11/1/2013 4:30:07 AM,72.094452,-176.612958,True,3,10.5,-1.55,72.546300,-176.302150,5,School of Fisheries and Ocean Sciences,,,,,,,,,
300234060750230,SFOS-MS-0029,11/1/2013 4:02:02 AM,72.092149,-176.593939,True,3,10.5,-1.55,72.288100,-176.376020,3,School of Fisheries and Ocean Sciences,,,,,,,,,
300234060750230,SFOS-MS-0029,11/1/2013 3:30:07 AM,72.088674,-176.573894,True,3,10.5,-1.55,72.288100,-176.376020,3,School of Fisheries and Ocean Sciences,,,,,,,,,
300234060750230,SFOS-MS-0029,11/1/2013 3:01:01 AM,72.084999,-176.556552,True,3,10.5,-1.60,72.275800,-176.306400,3,School of Fisheries and Ocean Sciences,,,,,,,,,
300234060750230,SFOS-MS-0029,11/1/2013 2:30:11 AM,72.081219,-176.538891,True,3,10.5,-1.50,72.275800,-176.306400,3,School of Fisheries and Ocean Sciences,,,,,,,,,
300234060750230,SFOS-MS-0029,11/1/2013 2:00:09 AM,72.077736,-176.517705,True,3,10.5,-1.55,72.263200,-176.236790,1,School of Fisheries and Ocean Sciences,,,,,,,,,
300234060750230,SFOS-MS-0029,11/1/2013 1:30:07 AM,72.074158,-176.498080,True,3,10.5,-1.60,72.275800,-176.306400,2,School of Fisheries and Ocean Sciences,,,,,,,,,
300234060750230,SFOS-MS-0029,11/1/2013 1:01:32 AM,72.070711,-176.478355,True,3,10.5,-1.55,72.263200,-176.236790,2,School of Fisheries and Ocean Sciences,,,,,,,,,
300234060750230,SFOS-MS-0029,11/1/2013 12:30:14 AM,72.067311,-176.460208,True,3,10.5,-1.55,72.546300,-176.302150,7,School of Fisheries and Ocean Sciences,,,,,,,,,
300234060750230,SFOS-MS-0029,11/1/2013 12:00:07 AM,72.064711,-176.443769,True,3,10.5,-1.55,71.549120,-174.201200,108,School of Fisheries and Ocean Sciences,,,,,,,,,
300234060750230,SFOS-MS-0029,10/31/2013 11:30:08 PM,72.062588,-176.428314,True,3,10.5,-1.55,72.263200,-176.236790,2,School of Fisheries and Ocean Sciences,,,,,,,,,
300234060750230,SFOS-MS-0029,10/31/2013 11:00:08 PM,72.060558,-176.413047,True,3,10.5,-1.55,72.263200,-176.236790,8,School of Fisheries and Ocean Sciences,,,,,,,,,
300234060750230,SFOS-MS-0029,10/31/2013 10:30:09 PM,72.058630,-176.399853,True,3,10.5,-1.50,72.275800,-176.306400,2,School of Fisheries and Ocean Sciences,,,,,,,,,
300234060750230,SFOS-MS-0029,10/31/2013 10:00:37 PM,72.057061,-176.387908,True,3,10.5,-1.50,72.250100,-176.167210,2,School of Fisheries and Ocean Sciences,,,,,,,,,
300234060750230,SFOS-MS-0029,10/31/2013 9:30:08 PM,72.055388,-176.375358,True,3,10.5,-1.45,72.275800,-176.306400,3,School of Fisheries and Ocean Sciences,,,,,,,,,
300234060750230,SFOS-MS-0029,10/31/2013 9:00:37 PM,72.054030,-176.362816,True,3,10.5,-1.50,72.590000,-176.241170,7,School of Fisheries and Ocean Sciences,,,,,,,,,
300234060750230,SFOS-MS-0029,10/31/2013 8:30:10 PM,72.053147,-176.349791,True,3,10.5,-1.55,72.378470,176.923800,270,School of Fisheries and Ocean Sciences,,,,,,,,,
300234060750230,SFOS-MS-0029,10/31/2013 8:00:07 PM,72.053041,-176.333644,True,3,10.5,-1.65,72.263200,-176.236790,3,School of Fisheries and Ocean Sciences,,,,,,,,,
300234060750230,SFOS-MS-0029,10/31/2013 7:30:07 PM,72.053783,-176.316958,True,3,10.5,-1.65,72.250100,-176.167210,1,School of Fisheries and Ocean Sciences,,,,,,,,,
300234060750230,SFOS-MS-0029,10/31/2013 7:00:07 PM,72.055519,-176.300733,True,3,10.5,-1.65,72.263200,-176.236790,4,School of Fisheries and Ocean Sciences,,,,,,,,,
300234060750230,SFOS-MS-0029,10/31/2013 6:30:07 PM,72.057591,-176.284316,True,3,10.5,-1.50,72.236600,-176.976400,3,School of Fisheries and Ocean Sciences,,,,,,,,,
300234060750230,SFOS-MS-0029,10/31/2013 6:00:37 PM,72.060266,-176.268122,True,3,10.5,-1.40,72.507000,-176.929600,4,School of Fisheries and Ocean Sciences,,,,,,,,,
300234060750230,SFOS-MS-0029,10/31/2013 5:30:07 PM,72.063244,-176.251433,True,3,10.5,-1.40,72.546300,-176.302150,5,School of Fisheries and Ocean Sciences,,,,,,,,,
300234060750230,SFOS-MS-0029,10/31/2013 5:00:07 PM,72.066297,-176.235211,True,3,10.5,-1.65,72.250100,-176.167210,2,School of Fisheries and Ocean Sciences,,,,,,,,,
300234060750230,SFOS-MS-0029,10/31/2013 4:30:07 PM,72.069624,-176.218703,True,3,10.5,-1.70,72.507000,-176.929600,3,School of Fisheries and Ocean Sciences,,,,,,,,,
300234060750230,SFOS-MS-0029,10/31/2013 4:00:07 PM,72.073113,-176.202469,True,3,10.5,-1.60,72.520500,-176.162670,2,School of Fisheries and Ocean Sciences,,,,,,,,,
300234060750230,SFOS-MS-0029,10/31/2013 3:30:37 PM,72.076655,-176.185489,True,3,10.5,-1.35,72.507000,-176.929600,3,School of Fisheries and Ocean Sciences,,,,,,,,,
300234060750230,SFOS-MS-0029,10/31/2013 1:00:07 PM,72.089958,-176.075914,True,3,10.5,-1.05,72.493100,-176.232700,4,School of Fisheries and Ocean Sciences,,,,,,,,,
300234060750230,SFOS-MS-0029,10/31/2013 12:30:07 PM,72.091624,-176.050936,True,3,10.5,-0.70,72.697200,-176.184400,5,School of Fisheries and Ocean Sciences,,,,,,,,,
300234060750230,SFOS-MS-0029,10/31/2013 12:00:37 PM,72.093677,-176.026305,True,3,10.5,-0.65,72.682900,-175.548620,2,School of Fisheries and Ocean Sciences,,,,,,,,,
300234060750230,SFOS-MS-0029,10/31/2013 11:30:06 AM,72.096261,-176.000297,True,3,10.5,-1.40,72.478700,-175.553600,4,School of Fisheries and Ocean Sciences,,,,,,,,,
300234060750230,SFOS-MS-0029,10/31/2013 11:00:07 AM,72.099299,-175.972833,True,3,10.5,-0.35,72.217500,-178.224020,159,School of Fisheries and Ocean Sciences,,,,,,,,,
300234060750230,SFOS-MS-0029,10/31/2013 10:30:07 AM,72.103197,-175.944655,True,3,10.5,-0.60,72.478700,-175.553600,3,School of Fisheries and Ocean Sciences,,,,,,,,,
300234060750230,SFOS-MS-0029,10/31/2013 10:00:06 AM,72.106627,-175.918269,True,3,10.5,-0.90,72.493100,-176.232700,2,School of Fisheries and Ocean Sciences,,,,,,,,,
300234060750230,SFOS-MS-0029,10/31/2013 9:30:37 AM,72.109544,-175.892497,True,3,10.5,-0.55,72.464000,-175.483950,3,School of Fisheries and Ocean Sciences,,,,,,,,,
300234060750230,SFOS-MS-0029,10/31/2013 9:00:08 AM,72.112722,-175.865511,True,3,10.5,-0.75,72.872200,-175.473700,7,School of Fisheries and Ocean Sciences,,,,,,,,,
300234060750230,SFOS-MS-0029,10/31/2013 8:30:07 AM,72.115494,-175.838367,True,3,10.5,-0.90,72.942600,-174.508750,183,School of Fisheries and Ocean Sciences,,,,,,,,,
300234060750230,SFOS-MS-0029,10/31/2013 8:00:07 AM,72.118102,-175.811022,True,3,10.5,-1.65,72.682900,-175.548620,2,School of Fisheries and Ocean Sciences,,,,,,,,,
300234060750230,SFOS-MS-0029,10/31/2013 7:30:08 AM,72.120758,-175.783408,True,3,10.5,-0.85,72.682900,-175.548620,2,School of Fisheries and Ocean Sciences,,,,,,,,,
300234060750230,SFOS-MS-0029,10/31/2013 7:00:07 AM,72.123105,-175.754936,True,3,10.5,-0.55,72.668100,-175.478830,2,School of Fisheries and Ocean Sciences,,,,,,,,,
300234060750230,SFOS-MS-0029,10/31/2013 6:30:07 AM,72.124519,-175.726500,True,3,10.5,-0.35,72.652900,-175.409060,5,School of Fisheries and Ocean Sciences,,,,,,,,,
300234060750230,SFOS-MS-0029,10/31/2013 6:00:37 AM,72.125238,-175.699450,True,3,10.5,-0.30,72.372400,-169.153000,236,School of Fisheries and Ocean Sciences,,,,,,,,,
300234060750230,SFOS-MS-0029,10/31/2013 5:30:11 AM,72.125730,-175.673586,True,3,10.5,-0.30,72.637300,-175.339310,1,School of Fisheries and Ocean Sciences,,,,,,,,,
300234060750230,SFOS-MS-0029,10/31/2013 5:00:08 AM,72.125833,-175.648825,True,3,10.5,-0.40,72.652900,-175.409060,2,School of Fisheries and Ocean Sciences,,,,,,,,,
300234060750230,SFOS-MS-0029,10/31/2013 4:30:07 AM,72.125674,-175.623908,True,3,10.5,-0.30,72.652900,-175.409060,2,School of Fisheries and Ocean Sciences,,,,,,,,,
300234060750230,SFOS-MS-0029,10/31/2013 4:00:07 AM,72.124899,-175.599133,True,3,10.5,-0.45,72.652900,-175.409060,3,School of Fisheries and Ocean Sciences,,,,,,,,,
300234060750230,SFOS-MS-0029,10/31/2013 3:30:07 AM,72.123880,-175.575319,True,3,10.5,-0.40,72.621200,-175.269590,3,School of Fisheries and Ocean Sciences,,,,,,,,,
300234060750230,SFOS-MS-0029,10/31/2013 3:00:37 AM,72.122655,-175.553386,True,3,10.5,-0.40,72.621200,-175.269590,2,School of Fisheries and Ocean Sciences,,,,,,,,,
300234060750230,SFOS-MS-0029,10/31/2013 2:30:08 AM,72.121119,-175.528886,True,3,10.5,-0.35,72.825300,-175.264020,5,School of Fisheries and Ocean Sciences,,,,,,,,,
300234060750230,SFOS-MS-0029,10/31/2013 2:00:07 AM,72.119327,-175.506853,True,3,10.5,-0.15,72.637300,-175.339310,2,School of Fisheries and Ocean Sciences,,,,,,,,,
300234060750230,SFOS-MS-0029,10/31/2013 1:30:07 AM,72.117252,-175.495819,True,3,10.5,-0.45,72.621200,-175.269590,2,School of Fisheries and Ocean Sciences,,,,,,,,,
300234060750230,SFOS-MS-0029,10/31/2013 1:00:08 AM,72.116408,-175.474083,True,3,10.5,-0.40,72.857000,-175.403780,19,School of Fisheries and Ocean Sciences,,,,,,,,,
300234060750230,SFOS-MS-0029,10/31/2013 12:30:08 AM,72.115861,-175.450139,True,3,10.5,-0.30,72.825300,-175.264020,19,School of Fisheries and Ocean Sciences,,,,,,,,,
300234060750230,SFOS-MS-0029,10/31/2013 12:00:37 AM,72.115369,-175.427670,True,3,10.5,-0.20,72.604800,-175.199880,2,School of Fisheries and Ocean Sciences,,,,,,,,,
300234060750230,SFOS-MS-0029,10/30/2013 11:30:08 PM,72.115355,-175.401867,True,3,10.5,-0.35,72.637300,-175.339310,2,School of Fisheries and Ocean Sciences,,,,,,,,,
300234060750230,SFOS-MS-0029,10/30/2013 11:00:10 PM,72.114844,-175.376242,True,3,10.5,-0.40,72.604800,-175.199880,5,School of Fisheries and Ocean Sciences,,,,,,,,,
300234060750230,SFOS-MS-0029,10/30/2013 10:30:08 PM,72.113747,-175.348317,True,3,10.5,-0.45,72.335850,178.338940,223,School of Fisheries and Ocean Sciences,,,,,,,,,
300234060750230,SFOS-MS-0029,10/30/2013 10:03:01 PM,72.112705,-175.322878,True,3,10.5,-1.55,72.497500,-174.382150,69,School of Fisheries and Ocean Sciences,,,,,,,,,
300234060750230,SFOS-MS-0029,10/30/2013 9:30:08 PM,72.110961,-175.290728,True,3,10.5,-0.45,72.587900,-175.130200,2,School of Fisheries and Ocean Sciences,,,,,,,,,
300234060750230,SFOS-MS-0029,10/30/2013 9:00:33 PM,72.109647,-175.265564,True,3,10.5,-0.15,72.604800,-175.199880,3,School of Fisheries and Ocean Sciences,,,,,,,,,
300234060750230,SFOS-MS-0029,10/30/2013 8:30:07 PM,72.107486,-175.252236,True,3,10.5,-0.15,72.604800,-175.199880,3,School of Fisheries and Ocean Sciences,,,,,,,,,
300234060750230,SFOS-MS-0029,10/30/2013 8:02:01 PM,72.105677,-175.240606,True,3,10.5,-0.15,72.621200,-175.269590,153,School of Fisheries and Ocean Sciences,,,,,,,,,
300234060750230,SFOS-MS-0029,10/30/2013 7:30:07 PM,72.103833,-175.227281,True,3,10.5,-0.10,71.531460,-168.305500,238,School of Fisheries and Ocean Sciences,,,,,,,,,
300234060750230,SFOS-MS-0029,10/30/2013 7:00:07 PM,72.102041,-175.215775,True,3,10.5,-0.10,72.604800,-175.199880,2,School of Fisheries and Ocean Sciences,,,,,,,,,
300234060750230,SFOS-MS-0029,10/30/2013 6:30:08 PM,72.101074,-175.202664,True,3,10.5,-0.55,72.587900,-175.130200,2,School of Fisheries and Ocean Sciences,,,,,,,,,
300234060750230,SFOS-MS-0029,10/30/2013 6:00:07 PM,72.101419,-175.180458,True,3,10.5,44.00,72.587900,-175.130200,3,School of Fisheries and Ocean Sciences,,,,,,,,,
300234060750230,SFOS-MS-0029,10/30/2013 5:30:37 PM,72.101686,-175.156603,True,3,10.5,-2.35,72.587900,-175.130200,3,School of Fisheries and Ocean Sciences,,,,,,,,,
300234060750230,SFOS-MS-0029,10/30/2013 5:00:10 PM,72.102008,-175.132922,True,3,10.5,-2.65,72.553000,-174.590910,3,School of Fisheries and Ocean Sciences,,,,,,,,,
300234060750230,SFOS-MS-0029,10/30/2013 4:30:48 PM,72.101880,-175.109231,True,3,10.5,-0.15,72.553000,-174.590910,3,School of Fisheries and Ocean Sciences,,,,,,,,,
300234060750230,SFOS-MS-0029,10/30/2013 4:00:08 PM,72.102102,-175.086161,True,3,10.5,-0.25,72.178220,-178.209970,131,School of Fisheries and Ocean Sciences,,,,,,,,,
300234060750230,SFOS-MS-0029,10/30/2013 3:30:08 PM,72.101988,-175.064559,True,3,10.5,-0.10,72.169400,-172.187960,121,School of Fisheries and Ocean Sciences,,,,,,,,,
300234060750230,SFOS-MS-0029,10/30/2013 3:00:12 PM,72.101494,-175.042753,True,3,10.5,0.05,72.553000,-174.590910,2,School of Fisheries and Ocean Sciences,,,,,,,,,
300234060750230,SFOS-MS-0029,10/30/2013 2:30:07 PM,72.100883,-175.024495,True,3,10.5,0.35,72.553000,-174.590910,3,School of Fisheries and Ocean Sciences,,,,,,,,,
300234060750230,SFOS-MS-0029,10/30/2013 2:02:01 PM,72.098944,-175.014134,True,3,10.5,0.40,72.332740,177.580430,263,School of Fisheries and Ocean Sciences,,,,,,,,,
300234060750230,SFOS-MS-0029,10/30/2013 1:31:02 PM,72.096469,-175.002425,True,3,10.5,-0.20,72.553000,-174.590910,4,School of Fisheries and Ocean Sciences,,,,,,,,,
300234060750230,SFOS-MS-0029,10/30/2013 1:00:08 PM,72.095744,-174.978834,True,3,10.5,-0.10,72.534900,-174.521300,2,School of Fisheries and Ocean Sciences,,,,,,,,,
300234060750230,SFOS-MS-0029,10/30/2013 12:30:12 PM,72.095522,-174.957217,True,3,10.5,-1.85,72.738700,-174.515030,5,School of Fisheries and Ocean Sciences,,,,,,,,,
300234060750230,SFOS-MS-0029,10/30/2013 12:00:08 PM,72.095647,-174.934656,True,3,10.5,-0.05,72.756800,-174.584780,8,School of Fisheries and Ocean Sciences,,,,,,,,,
300234060750230,SFOS-MS-0029,10/30/2013 11:30:08 AM,72.095086,-174.911631,True,3,10.5,-0.05,72.720200,-174.445310,2,School of Fisheries and Ocean Sciences,,,,,,,,,
300234060750230,SFOS-MS-0029,10/30/2013 11:00:08 AM,72.094269,-174.888367,True,3,10.5,0.00,72.738700,-174.515030,5,School of Fisheries and Ocean Sciences,,,,,,,,,
300234060750230,SFOS-MS-0029,10/30/2013 10:30:08 AM,72.093558,-174.863528,True,3,10.5,-0.50,72.516400,-174.451710,2,School of Fisheries and Ocean Sciences,,,,,,,,,
300234060750230,SFOS-MS-0029,10/30/2013 10:00:37 AM,72.092711,-174.840653,True,3,10.5,0.00,72.516400,-174.451710,2,School of Fisheries and Ocean Sciences,,,,,,,,,
300234060750230,SFOS-MS-0029,10/30/2013 9:30:10 AM,72.092238,-174.818242,True,3,10.5,0.10,72.534900,-174.521300,2,School of Fisheries and Ocean Sciences,,,,,,,,,
300234060750230,SFOS-MS-0029,10/30/2013 9:00:08 AM,72.091997,-174.797731,True,3,10.5,0.15,72.720200,-174.445310,10,School of Fisheries and Ocean Sciences,,,,,,,,,
300234060750230,SFOS-MS-0029,10/30/2013 8:32:21 AM,72.092547,-174.779447,True,3,10.5,0.20,72.516400,-174.451710,2,School of Fisheries and Ocean Sciences,,,,,,,,,
300234060750230,SFOS-MS-0029,10/30/2013 8:00:09 AM,72.093486,-174.758398,True,3,10.5,0.15,72.450200,-174.451710,8,School of Fisheries and Ocean Sciences,,,,,,,,,
300234060750230,SFOS-MS-0029,10/30/2013 7:30:37 AM,72.094113,-174.739770,True,3,10.5,0.20,72.478100,-174.312620,12,School of Fisheries and Ocean Sciences,,,,,,,,,
300234060750230,SFOS-MS-0029,10/30/2013 7:00:09 AM,72.094752,-174.722336,True,3,10.5,0.30,72.516400,-174.451710,2,School of Fisheries and Ocean Sciences,,,,,,,,,
300234060750230,SFOS-MS-0029,10/30/2013 6:30:08 AM,72.095533,-174.705692,True,3,10.5,0.25,72.516400,-174.451710,2,School of Fisheries and Ocean Sciences,,,,,,,,,
300234060750230,SFOS-MS-0029,10/30/2013 6:00:08 AM,72.096402,-174.690950,True,3,10.5,0.15,72.416930,-166.592380,275,School of Fisheries and Ocean Sciences,,,,,,,,,
300234060750230,SFOS-MS-0029,10/30/2013 5:30:08 AM,72.097622,-174.675681,True,3,10.5,0.10,72.701200,-174.375610,6,School of Fisheries and Ocean Sciences,,,,,,,,,
300234060750230,SFOS-MS-0029,10/30/2013 5:00:08 AM,72.098663,-174.660859,True,3,10.5,0.10,72.681800,-174.305940,3,School of Fisheries and Ocean Sciences,,,,,,,,,
300234060750230,SFOS-MS-0029,10/30/2013 4:30:08 AM,72.099366,-174.647300,True,3,10.5,0.05,72.478100,-174.312620,3,School of Fisheries and Ocean Sciences,,,,,,,,,
300234060750230,SFOS-MS-0029,10/30/2013 4:00:37 AM,72.100130,-174.632761,True,3,10.5,0.10,72.681800,-174.305940,2,School of Fisheries and Ocean Sciences,,,,,,,,,
300234060750230,SFOS-MS-0029,10/30/2013 3:30:08 AM,72.100522,-174.618384,True,3,10.5,-0.10,72.681800,-174.305940,4,School of Fisheries and Ocean Sciences,,,,,,,,,
300234060750230,SFOS-MS-0029,10/30/2013 3:00:08 AM,72.100733,-174.604809,True,3,10.5,-1.75,72.478100,-174.312620,2,School of Fisheries and Ocean Sciences,,,,,,,,,
300234060750230,SFOS-MS-0029,10/30/2013 2:30:08 AM,72.101377,-174.590770,True,3,10.5,-1.60,71.516820,-179.461930,12,School of Fisheries and Ocean Sciences,,,,,,,,,
300234060750230,SFOS-MS-0029,10/30/2013 2:00:08 AM,72.101730,-174.577642,True,3,10.5,0.00,72.478100,-174.312620,2,School of Fisheries and Ocean Sciences,,,,,,,,,
300234060750230,SFOS-MS-0029,10/30/2013 1:30:37 AM,72.102072,-174.565342,True,3,10.5,0.05,72.681800,-174.305940,3,School of Fisheries and Ocean Sciences,,,,,,,,,
300234060750230,SFOS-MS-0029,10/30/2013 1:00:09 AM,72.102436,-174.552136,True,3,10.5,-0.10,72.681800,-174.305940,5,School of Fisheries and Ocean Sciences,,,,,,,,,
300234060750230,SFOS-MS-0029,10/30/2013 12:30:09 AM,72.102386,-174.539667,True,3,10.5,-0.05,72.478100,-174.312620,4,School of Fisheries and Ocean Sciences,,,,,,,,,
300234060750230,SFOS-MS-0029,10/30/2013 12:00:08 AM,72.102324,-174.526278,True,3,10.5,-0.15,72.681800,-174.305940,39,School of Fisheries and Ocean Sciences,,,,,,,,,
300234060750230,SFOS-MS-0029,10/29/2013 11:30:08 PM,72.101986,-174.513845,True,3,10.5,-0.10,72.458400,-174.243120,1,School of Fisheries and Ocean Sciences,,,,,,,,,
300234060750230,SFOS-MS-0029,10/29/2013 11:00:08 PM,72.100241,-174.507550,True,3,10.5,-0.10,72.681800,-174.305940,9,School of Fisheries and Ocean Sciences,,,,,,,,,